Curacao, Curacao

5:35 AM AST on June 26, 2017 (GMT -0400)
Willemstad-Hato International

Weather History for TNCC - September, 2012

Change the Weather History Date:

Thursday, September 13, 2012

  Actual Average Record
Temperature  
Mean Temperature 86 °F -  
Max Temperature 93 °F 89 °F 96 °F (1996)
Min Temperature 78 °F 78 °F 77 °F (2001)
Cooling Degree Days 20    
Growing Degree Days 36 (Base 50)    
Moisture  
Dew Point 76 °F    
Average Humidity 74    
Maximum Humidity 89    
Minimum Humidity 49    
Precipitation  
Precipitation 0.00 in 0.08 in - ()
Sea Level Pressure  
Sea Level Pressure 29.85 in    
Wind  
Wind Speed 11 mph ()    
Max Wind Speed 17 mph    
Max Gust Speed -    
Visibility 8.4 miles    
Events Thunderstorm    
Averages and records for this station are not official NWS values.
T = Trace of Precipitation, MM = Missing Value Source: Averaged Metar Reports

Daily Weather History Graph

Daily Weather History Graph

Search for Another Location

Airport or City:

Trip Planner

Search our weather history database for the weather conditions in past years. The results will help you decide how hot, cold, wet, or windy it might be!

Date:

Astronomy

Sep. 13, 2012 Rise Set
Actual Time 6:25 AM AST 6:37 PM AST
Civil Twilight 6:03 AM AST 6:59 PM AST
Nautical Twilight 5:39 AM AST 7:23 PM AST
Astronomical Twilight 5:14 AM AST 7:48 PM AST
Moon 4:01 AM AST (9/13) 4:44 PM AST (9/13)
Length of Visible Light 12h 55m
Length of Day
12h 12m
Waning Crescent, 7% of the Moon is Illuminated
Sep 13
Waning Crescent
Sep 15
New
Sep 22
First Quarter
Sep 29
Full
Oct 8
Last Quarter

Hourly Weather History & Observations

Time (AST) Temp. Heat Index Dew Point Humidity Pressure Visibility Wind Dir Wind Speed Gust Speed Precip Events Conditions
12:00 AM 82.4 °F 90.9 °F 77.0 °F 84% 29.89 in 6.2 mi East 11.5 mph - N/A   Scattered Clouds
1:00 AM 82.4 °F 90.9 °F 77.0 °F 84% 29.89 in 6.2 mi East 11.5 mph - N/A   Scattered Clouds
2:00 AM 82 °F - 76 °F 76% 29.86 in 25 mi East 10.4 mph - -   Partly Cloudy
2:00 AM 82.4 °F 89.5 °F 75.2 °F 79% 29.86 in 6.2 mi East 10.4 mph - N/A   Scattered Clouds
3:00 AM 82.4 °F 89.5 °F 75.2 °F 79% 29.83 in 6.2 mi East 11.5 mph - N/A   Scattered Clouds
4:00 AM 82.4 °F 90.9 °F 77.0 °F 84% 29.83 in 6.2 mi East 11.5 mph - N/A   Partly Cloudy
5:00 AM 82.4 °F 90.9 °F 77.0 °F 84% 29.83 in 6.2 mi East 12.7 mph - N/A Thunderstorm Thunderstorm
6:00 AM 78.8 °F - 75.2 °F 89% 29.86 in 6.2 mi ESE 8.1 mph - N/A   Partly Cloudy
7:00 AM 78.8 °F - 75.2 °F 89% 29.86 in 6.2 mi ESE 9.2 mph - N/A   Partly Cloudy
8:00 AM 83 °F - 75 °F 70% 29.88 in 19 mi ESE 11.5 mph - -   Scattered Clouds
8:00 AM 82.4 °F 89.5 °F 75.2 °F 79% 29.86 in 6.2 mi ESE 11.5 mph - N/A   Partly Cloudy
9:00 AM 87.8 °F 95.6 °F 73.4 °F 62% 29.89 in 6.2 mi ESE 17.3 mph - N/A   Partly Cloudy
10:00 AM 87.8 °F 95.6 °F 73.4 °F 62% 29.89 in 6.2 mi ESE 16.1 mph - N/A   Scattered Clouds
11:00 AM 90 °F - 74 °F 50% 29.89 in 19 mi ESE 11.5 mph - -   Scattered Clouds
11:00 AM 89.6 °F 99.8 °F 75.2 °F 62% 29.89 in 6.2 mi ESE 16.1 mph - N/A   Partly Cloudy
12:00 PM 89.6 °F 102.2 °F 77.0 °F 66% 29.86 in 6.2 mi East 16.1 mph - N/A   Partly Cloudy
1:00 PM 93.2 °F 100.5 °F 71.6 °F 49% 29.86 in 6.2 mi ESE 16.1 mph - N/A   Partly Cloudy
2:00 PM 89 °F - 77 °F 60% 29.83 in 19 mi ESE 13.8 mph - -   Partly Cloudy
2:00 PM 89.6 °F 102.2 °F 77.0 °F 66% 29.83 in 6.2 mi ESE 13.8 mph - N/A   Partly Cloudy
3:00 PM 87.8 °F 99.7 °F 77.0 °F 70% 29.80 in 6.2 mi East 17.3 mph - N/A   Partly Cloudy
4:00 PM 87.8 °F 99.7 °F 77.0 °F 70% 29.77 in 6.2 mi East 16.1 mph - N/A   Partly Cloudy
5:00 PM 86 °F - 76 °F 65% 29.79 in 19 mi East 17.3 mph - -   Scattered Clouds
5:00 PM 86.0 °F 96.9 °F 77.0 °F 74% 29.77 in 6.2 mi East 16.1 mph - N/A   Partly Cloudy
6:00 PM 84.2 °F 94.1 °F 77.0 °F 79% 29.80 in 6.2 mi East 15.0 mph - N/A   Partly Cloudy
7:00 PM 84.2 °F 94.1 °F 77.0 °F 79% 29.80 in 6.2 mi ESE 12.7 mph - N/A   Partly Cloudy
8:00 PM 84.2 °F 94.1 °F 77.0 °F 79% 29.83 in 6.2 mi ESE 15.0 mph - N/A   Partly Cloudy
9:00 PM 82.4 °F 90.9 °F 77.0 °F 84% 29.89 in 6.2 mi ESE 13.8 mph - N/A   Partly Cloudy
10:00 PM 82.4 °F 90.9 °F 77.0 °F 84% 29.89 in 6.2 mi ESE 12.7 mph - N/A   Partly Cloudy
11:00 PM 83 °F - 78 °F 80% 29.89 in 19 mi ESE 11.5 mph - -   Scattered Clouds
11:00 PM 82.4 °F 90.9 °F 77.0 °F 84% 29.89 in 6.2 mi ESE 11.5 mph - N/A   Partly Cloudy